WESTMAR Weather Reports


Display with metric or nautical units.
time (UTC)temp
F
wind
direction
speed
MPH
gust
MPH
rain 1hr
in
rain 24hr
in
rain mn
in
humidity
%
barometer
mb
20260504173050 74 0 0.0 3.0 0.00 0.00 0.00 54 1007.7
20260504171546 74 0 0.0 0.0 0.00 0.00 0.00 54 1007.7
20260504081550 53 0 0.0 1.0 0.00 0.00 0.00 76 1006.7
20260504044549 65 0 0.0 3.0 0.00 0.00 0.00 56 1007.0
20260504043051 65 123 0.0 5.0 0.00 0.00 0.00 57 1007.0
20260504041548 64 0 0.0 0.0 0.00 0.00 0.00 62 1007.1
20260504040131 63 0 0.0 0.0 0.00 0.00 0.00 69 1007.0
20260504034548 64 0 0.0 0.0 0.00 0.00 0.00 69 1007.0
20260504033049 66 0 0.0 0.0 0.00 0.00 0.00 69 1007.0
20260504031556 68 0 0.0 0.0 0.00 0.00 0.00 65 1007.0
20260504030049 71 0 0.0 0.0 0.00 0.00 0.00 60 1007.0
20260504024551 75 0 0.0 0.0 0.00 0.00 0.00 52 1007.0
20260504023046 76 0 0.0 0.0 0.00 0.00 0.00 45 1007.0
20260504021542 78 0 0.0 0.0 0.00 0.00 0.00 43 1007.0
20260504020106 80 0 0.0 0.0 0.00 0.00 0.00 39 1007.1
20260504014554 81 0 0.0 0.0 0.00 0.00 0.00 38 1007.1
20260504013048 82 0 0.0 0.0 0.00 0.00 0.00 37 1007.2
20260504011545 84 0 0.0 2.0 0.00 0.00 0.00 37 1007.3
20260504010050 85 0 0.0 3.0 0.00 0.00 0.00 35 1007.4
20260504004542 86 0 0.0 2.0 0.00 0.00 0.00 34 1007.7
20260504003051 85 0 0.0 3.0 0.00 0.00 0.00 35 1008.1
20260504001553 86 0 0.0 1.0 0.00 0.00 0.00 36 1008.4
20260504000051 86 0 0.0 1.0 0.00 0.00 0.00 35 1008.4
20260503234620 87 0 0.0 2.0 0.00 0.00 0.00 36 1008.5
20260503233050 87 0 0.0 1.0 0.00 0.00 0.00 36 1008.6
20260503231552 86 0 0.0 3.0 0.00 0.00 0.00 37 1008.8
20260503230048 87 179 0.0 2.0 0.00 0.00 0.00 36 1009.1
20260503224546 86 24 0.0 4.0 0.00 0.00 0.00 36 1009.2
20260503223050 86 0 0.0 2.0 0.00 0.00 0.00 37 1009.4
20260503221556 85 0 0.0 2.0 0.00 0.00 0.00 37 1009.6
20260503220051 86 0 0.0 3.0 0.00 0.00 0.00 37 1009.7
20260503214544 84 0 0.0 4.0 0.00 0.00 0.00 40 1009.9
20260503213044 83 148 0.0 4.0 0.00 0.00 0.00 40 1010.1
20260503211548 83 0 0.0 5.0 0.00 0.00 0.00 40 1010.1
20260503210047 84 234 0.0 4.0 0.00 0.00 0.00 41 1010.3
20260503204546 82 154 0.0 5.0 0.00 0.00 0.00 42 1010.6
20260503203056 82 0 0.0 4.0 0.00 0.00 0.00 42 1010.8
20260503201551 81 208 0.0 3.0 0.00 0.00 0.00 43 1010.9
20260503200054 79 0 0.0 4.0 0.00 0.00 0.00 45 1011.1
20260503194558 80 0 0.0 3.0 0.00 0.00 0.00 44 1011.4
20260503193056 81 170 0.0 4.0 0.00 0.00 0.00 44 1011.5
20260503191554 78 0 0.0 3.0 0.00 0.00 0.00 46 1011.6
20260503190050 77 0 0.0 2.0 0.00 0.00 0.00 49 1011.6
20260503184550 76 0 0.0 3.0 0.00 0.00 0.00 50 1011.8
20260503183051 75 0 0.0 3.0 0.00 0.00 0.00 51 1011.9
20260503181552 75 0 0.0 4.0 0.00 0.00 0.00 49 1011.9
20260503180100 74 178 0.0 2.0 0.00 0.00 0.00 51 1011.9
20260503174547 74 69 0.0 2.0 0.00 0.00 0.00 52 1012.0